Regional Weather Roundup
Issued by NWS

Home | Current Version | Previous Version | Text Only | Print | Product List | Glossary Off
Versions: 1 2 3 4 5 6 7 8 9 10 11 12 13 14 15 16 17 18 19 20 21 22 23 24 25 26 27 28 29 30 31 32 33 34 35 36 37 38 39 40 41 42 43 44 45 46 47 48 49 50

000
ASUS43 KLMK 240402
RWRKY
KENTUCKY REGIONAL WEATHER ROUNDUP
NATIONAL WEATHER SERVICE LOUISVILLE KY
1200 AM EDT SUN JUL 24 2016

NOTE "FAIR" INDICATES FEW OR NO CLOUDS BELOW 12,000 FEET
WITH NO SIGNIFICANT WEATHER AND/OR OBSTRUCTIONS TO VISIBILITY.

KYZ001>023-026-027-061>063-070>075-240500-
WESTERN AND SOUTH CENTRAL KENTUCKY

CITY           SKY/WX    TMP DP  RH WIND       PRES   REMARKS
PADUCAH        PTCLDY    82  75  79 S5        29.96S
HENDERSON      CLEAR     79  73  83 CALM      29.96S
OWENSBORO      CLEAR     84  78  82 CALM      29.98F HX  94
HOPKINSVILLE   CLOUDY    76  76  98 CALM      29.98F
BOWLING GREEN  CLEAR     80  75  84 E5        29.99F
GLASGOW        NOT AVBL
$$

KYZ024-025-028>034-038-045-046-053-240500-
NORTH CENTRAL KENTUCKY

CITY           SKY/WX    TMP DP  RH WIND       PRES   REMARKS
LOUISVILLE/SDF PTCLDY    86  74  67 SW3       29.98F HX  94
LOUISVILLE/LOU PTCLDY    86  74  67 S3        29.99F HX  94
FORT KNOX      CLEAR     78  75  91 CALM      29.99F
$$

KYZ035>037-039>044-047>052-055>060-089>105-240500-
NORTHEAST KENTUCKY

CITY           SKY/WX    TMP DP  RH WIND       PRES   REMARKS
LEXINGTON      PTCLDY    79  73  82 CALM      30.03S
COVINGTON      PTCLDY    81  73  76 CALM      30.01F
FRANKFORT      CLEAR     79  74  84 CALM      30.01R
$$

KYZ054-064>069-076>088-106>120-240500-
SOUTHEAST KENTUCKY

CITY           SKY/WX    TMP DP  RH WIND       PRES   REMARKS
JACKSON        CLOUDY    79  71  76 SE3       30.06R
LONDON         CLOUDY    78  70  76 CALM      30.06R
SOMERSET       CLEAR     73  70  88 CALM      30.06R
MIDDLESBORO    CLOUDY    73  73  99 CALM      30.07R
MONTICELLO     PTCLDY   N/A N/A N/A W8        30.06R
$$





USA.gov is the U.S. government's official web portal to all federal, state and local government web resources and services.